Wind_Speed
26 26 26 26 26 26 26 26 25 24 23 22 21 20 18 17 17 16 15 15 15 15 15 15 15 15 16 15 15 16 16 16 15 16 17 18 19 19 19 20 20 20 21 21
28 27 28 27 27 27 27 26 26 26 25 24 23 22 20 19 18 18 17 18 17 16 16 16 16 16 17 17 17 17 17 18 18 18 19 19 20 21 21 22 22 22 23 23
29 28 28 29 28 27 27 26 26 27 27 26 26 24 23 21 20 20 19 19 19 18 18 18 18 18 19 20 20 20 20 19 20 21 22 22 21 22 23 23 24 24 24 24
29 30 30 28 28 28 27 27 27 28 28 27 27 26 24 22 21 21 21 21 21 20 21 21 21 21 21 21 22 22 22 21 21 22 22 23 23 24 23 23 24 25 25 25
31 30 31 30 29 28 28 28 28 28 28 27 26 25 25 24 23 22 23 22 22 22 23 23 23 23 23 22 23 23 23 23 22 23 23 24 24 24 25 25 25 26 27 27
33 31 31 30 29 28 28 29 29 29 28 27 27 26 26 25 24 24 23 23 24 25 25 25 25 24 24 24 24 25 25 26 25 25 25 25 25 26 26 26 26 27 28 29
33 32 32 31 30 28 28 28 28 28 28 28 27 27 26 26 25 25 24 25 25 26 26 26 25 25 25 26 26 27 28 28 27 27 27 27 27 27 27 28 28 29 29 29
32 32 32 32 30 30 29 28 27 27 28 28 27 26 26 26 26 26 26 26 26 27 27 26 26 26 27 28 29 29 30 29 29 29 29 28 28 28 29 29 29 29 29 29
33 33 32 32 31 30 29 29 28 28 28 28 27 26 26 26 26 26 26 27 27 28 28 28 28 29 29 30 30 31 31 31 30 30 30 30 30 30 30 30 30 30 29 29
33 33 32 32 32 31 30 29 29 29 28 28 27 27 27 27 26 26 27 27 28 28 29 29 30 30 31 31 32 33 33 33 32 31 32 32 32 31 31 30 29 29 29 30
33 33 32 32 31 30 29 29 29 29 29 28 28 28 28 27 27 27 27 28 28 29 29 30 30 31 32 32 33 33 33 33 33 33 33 33 32 32 31 31 31 31 31 31
33 33 33 32 31 29 28 29 29 29 29 28 27 28 28 28 28 28 28 29 29 30 31 31 32 32 33 33 33 33 33 33 33 33 34 34 34 33 33 32 32 32 33 33
32 31 31 31 30 29 28 29 29 29 29 28 29 29 30 30 30 30 30 30 31 32 32 32 33 33 33 34 34 34 34 34 33 33 34 34 34 34 34 34 34 34 34 34
31 30 30 29 28 27 28 28 28 28 28 29 29 29 30 31 31 31 31 32 31 32 33 34 34 35 34 34 34 34 33 33 34 34 34 34 34 35 34 34 35 34 34 35
30 29 28 28 28 27 27 27 27 27 27 27 28 28 29 30 31 32 32 33 33 33 33 34 35 35 35 35 34 34 34 34 34 34 35 35 35 35 35 35 35 35 35 35
28 28 27 27 27 28 27 27 28 27 27 26 27 28 28 29 30 32 32 33 33 33 33 34 35 35 34 34 34 34 35 35 35 35 36 36 36 36 36 36 36 37 36 36
27 27 26 25 26 27 26 26 27 27 27 27 27 27 28 29 29 30 30 31 31 31 32 33 33 33 34 34 33 34 35 35 35 36 36 35 36 36 36 36 37 37 36 36
25 25 24 24 25 25 24 24 25 25 26 26 27 27 28 29 29 29 30 30 30 30 31 32 32 33 34 34 33 34 34 34 35 35 35 35 35 35 36 36 35 35 35 35
23 23 22 22 23 24 24 23 23 24 24 24 24 25 25 26 27 28 28 28 28 29 31 32 32 32 32 32 32 33 33 33 33 33 33 33 33 34 34 34 34 34 35 35
22 22 21 21 22 23 24 23 23 23 23 23 23 23 23 24 25 25 26 26 27 28 28 29 29 30 30 30 30 30 30 29 30 30 31 32 32 32 33 34 34 35 35 35
20 20 20 20 21 22 22 21 21 20 20 20 20 20 21 22 23 23 24 25 26 27 27 27 28 28 28 28 28 28 28 28 28 29 30 31 32 32 33 33 33 33 34 34
19 19 19 19 19 19 19 19 18 18 17 18 19 19 20 20 21 22 23 24 24 25 25 25 25 24 24 25 25 25 26 26 26 28 29 30 30 30 29 30 30 31 32 32
17 17 17 17 17 17 17 17 17 17 17 17 17 17 18 19 19 19 20 20 21 21 22 23 23 23 23 23 23 23 23 24 25 25 25 26 26 27 27 28 28 29 30 31
16 16 16 16 16 15 15 15 16 16 16 16 16 16 17 18 18 17 17 17 18 18 19 20 20 20 20 20 21 21 22 23 23 23 23 24 25 26 27 27 28 29 30 30
15 15 15 14 15 14 14 15 15 15 15 15 15 16 16 16 16 16 16 16 16 17 18 18 18 18 19 20 20 20 21 21 22 22 23 24 25 25 26 27 28 29 29 30
14 14 14 13 13 13 13 14 14 14 14 14 14 13 13 14 14 15 15 15 15 16 17 17 18 18 19 19 19 20 20 21 22 22 23 24 24 25 26 27 28 29 30 30
13 13 13 13 13 12 12 12 12 12 13 12 12 11 12 12 12 13 13 14 14 15 15 15 16 17 17 18 19 20 20 20 21 22 23 24 25 26 27 27 28 30 31 31
Wind_Direction
231 234 237 240 240 241 240 240 245 247 246 249 253 255 258 262 261 262 263 265 268 272 272 274 278 280 279 281 280 281 283 283 286 288 288 287 285 285 285 286 287 289 290 291
234 236 237 239 240 241 242 243 245 247 247 249 253 254 256 259 258 259 260 262 264 268 269 271 276 279 282 280 279 281 284 282 282 285 286 287 285 282 283 284 285 287 288 290
237 238 240 242 241 243 245 245 247 249 249 250 251 252 254 258 258 256 256 259 262 265 268 269 272 276 279 279 279 280 282 284 283 283 284 285 283 284 284 284 286 287 289 291
238 239 239 242 244 245 246 248 248 249 250 252 250 252 253 255 256 254 256 257 259 261 265 267 270 272 275 277 277 278 280 283 286 286 287 288 288 289 286 287 287 288 288 290
239 242 244 244 245 244 245 246 246 247 249 250 252 252 252 253 254 255 255 255 257 259 261 266 271 273 275 276 278 280 280 280 283 285 286 287 289 288 288 287 288 288 289 289
238 241 246 246 245 245 247 248 247 247 248 249 252 252 251 251 253 254 254 253 255 258 262 267 271 272 275 276 276 279 281 280 279 280 282 283 286 287 288 289 288 288 289 290
239 242 245 245 245 245 246 247 246 247 248 250 251 251 251 251 251 251 253 255 256 259 263 266 269 271 273 274 275 278 281 280 278 279 280 281 283 285 286 288 289 290 290 290
239 241 244 244 244 244 247 248 248 248 248 249 249 250 249 249 249 250 253 255 257 260 261 264 267 270 271 273 274 276 280 281 279 278 279 280 281 284 286 288 289 290 291 292
238 240 243 244 245 246 248 248 247 248 248 248 248 248 248 250 250 249 251 254 257 260 262 265 267 269 270 271 274 276 277 278 279 279 279 281 282 283 285 286 288 288 289 291
239 240 242 244 246 247 248 248 248 249 248 246 246 246 247 248 247 249 252 255 258 262 264 266 267 268 270 271 274 275 276 278 278 279 280 281 281 283 284 285 287 288 288 288
238 240 242 243 246 248 251 248 245 246 247 248 245 246 246 246 248 251 253 256 259 261 264 266 267 269 271 274 276 276 277 276 277 278 279 278 279 281 283 285 286 286 287 288
236 238 241 242 244 246 246 245 245 246 247 246 244 245 246 247 249 251 254 257 258 260 263 266 268 270 273 275 275 276 278 278 278 278 278 278 278 279 281 283 285 286 287 288
235 238 241 242 242 242 243 244 245 245 245 245 245 246 247 249 250 252 253 256 258 261 264 266 268 271 272 273 274 276 277 277 278 279 278 278 279 279 279 281 283 284 285 286
236 238 239 240 241 242 244 246 245 245 244 246 246 247 248 250 251 252 254 257 260 262 265 267 269 271 273 274 275 276 276 276 278 278 278 279 279 278 279 280 281 282 283 285
235 237 239 239 239 239 243 247 247 246 247 249 249 250 251 253 254 257 260 262 262 263 265 268 270 271 272 274 275 275 275 278 279 279 279 279 279 279 279 280 281 282 282 283
233 234 236 238 238 240 243 246 248 247 248 249 251 253 254 255 256 259 262 263 262 263 264 267 270 273 274 274 275 278 278 280 281 280 279 278 278 278 279 280 281 281 282 283
231 233 236 237 237 241 244 246 247 248 249 249 252 254 255 257 260 261 261 263 264 264 266 269 273 275 277 278 280 281 282 283 282 281 280 279 279 279 278 279 280 281 282 283
229 231 233 234 236 238 242 244 246 247 248 250 252 255 258 259 261 263 263 264 266 268 271 274 276 279 280 282 282 283 282 283 283 282 282 281 280 279 279 280 280 281 281 282
226 229 233 234 237 241 243 244 246 248 250 253 256 258 260 263 265 265 265 265 266 269 272 275 277 279 280 282 284 284 283 283 283 283 283 282 282 282 282 282 282 282 282 283
227 231 233 235 237 240 242 244 247 250 252 254 258 261 262 264 266 265 266 266 268 270 271 273 275 278 281 283 284 284 284 284 283 283 283 283 283 282 282 283 283 283 283 283
227 230 234 237 237 239 243 246 248 248 249 253 256 260 263 265 267 267 268 268 269 270 271 273 276 279 281 283 284 284 285 284 284 284 285 284 284 284 283 283 284 284 285 285
229 232 235 236 237 237 238 242 245 247 250 252 256 261 264 267 270 272 272 271 272 273 274 275 278 280 283 285 285 284 286 287 287 289 287 285 285 285 286 286 287 287 288 288
225 228 230 231 232 234 236 239 244 249 252 253 256 262 267 271 275 277 276 274 274 274 275 277 279 282 284 284 285 286 288 290 292 292 291 290 290 289 289 290 291 292 293 293
217 220 224 227 230 234 238 242 246 250 252 253 259 264 269 273 278 282 281 280 279 280 281 282 282 284 285 287 289 290 292 292 293 294 294 294 293 292 292 293 294 295 295 295
217 221 225 229 231 235 240 244 246 250 255 259 261 265 270 274 277 280 282 284 286 287 286 286 288 290 292 294 295 296 295 294 294 294 294 293 292 293 294 295 297 298 298 297
217 220 225 229 232 235 240 245 247 249 254 259 263 268 274 278 279 281 283 285 287 288 288 289 291 293 294 296 297 298 297 296 296 296 295 294 295 296 297 299 301 301 300 299
214 218 223 227 230 235 240 244 245 249 254 258 264 270 276 280 283 284 287 289 291 293 293 294 295 296 296 297 298 299 300 300 301 302 302 301 301 300 300 301 302 301 301 300
Height
5852 5855 5857 5859 5861 5863 5866 5869 5871 5873 5874 5877 5878 5879 5880 5881 5882 5883 5884 5884 5884 5884 5883 5883 5882 5881 5880 5880 5879 5878 5877 5876 5875 5874 5873 5871 5870 5869 5868 5867 5865 5864 5862 5860
5845 5847 5850 5852 5855 5857 5859 5861 5863 5866 5867 5870 5872 5873 5875 5876 5877 5877 5878 5879 5879 5879 5879 5878 5878 5877 5876 5875 5875 5874 5873 5872 5871 5869 5868 5866 5865 5864 5863 5862 5860 5859 5857 5855
5838 5841 5843 5845 5848 5850 5852 5854 5857 5858 5861 5863 5865 5866 5868 5869 5870 5871 5872 5873 5873 5874 5874 5873 5873 5872 5872 5871 5870 5869 5868 5867 5865 5864 5863 5861 5860 5858 5857 5856 5854 5853 5851 5849
5831 5834 5836 5841 5841 5843 5845 5847 5849 5851 5852 5854 5857 5859 5861 5863 5864 5865 5866 5867 5867 5868 5868 5868 5867 5867 5866 5865 5864 5863 5862 5861 5860 5858 5857 5856 5854 5853 5851 5850 5848 5846 5845 5843
5823 5826 5828 5832 5833 5835 5838 5840 5841 5843 5845 5847 5850 5852 5854 5856 5857 5858 5860 5860 5861 5861 5861 5861 5861 5860 5860 5859 5858 5857 5856 5855 5854 5853 5851 5850 5848 5846 5844 5843 5841 5840 5838 5836
5815 5818 5821 5824 5825 5827 5831 5832 5834 5836 5838 5840 5842 5845 5847 5848 5850 5851 5852 5853 5854 5854 5854 5854 5854 5853 5853 5852 5852 5851 5850 5848 5847 5846 5845 5843 5842 5840 5838 5836 5834 5833 5831 5829
5806 5809 5812 5815 5817 5820 5824 5825 5826 5828 5830 5832 5834 5837 5839 5841 5842 5844 5845 5846 5847 5847 5847 5847 5847 5847 5846 5846 5845 5844 5843 5841 5840 5839 5838 5836 5835 5833 5831 5829 5827 5825 5823 5821
5797 5801 5806 5806 5809 5812 5814 5816 5818 5820 5821 5824 5826 5829 5831 5833 5835 5836 5838 5839 5840 5840 5840 5840 5840 5840 5839 5838 5838 5837 5836 5834 5832 5831 5830 5828 5827 5825 5823 5821 5819 5817 5815 5813
5789 5794 5795 5797 5800 5803 5805 5807 5810 5812 5814 5816 5818 5821 5823 5825 5827 5829 5830 5831 5832 5832 5833 5833 5832 5832 5831 5831 5829 5829 5828 5827 5825 5824 5822 5820 5818 5817 5815 5813 5811 5809 5807 5805
5780 5783 5786 5789 5791 5794 5796 5798 5801 5803 5805 5808 5810 5813 5815 5817 5819 5821 5822 5823 5824 5825 5825 5825 5825 5824 5823 5822 5822 5821 5819 5818 5817 5815 5813 5812 5810 5808 5806 5804 5803 5801 5798 5796
5771 5775 5778 5780 5783 5786 5788 5790 5792 5794 5797 5799 5802 5804 5807 5809 5811 5813 5814 5815 5816 5816 5817 5817 5816 5816 5815 5814 5813 5811 5810 5809 5807 5806 5804 5803 5801 5799 5797 5796 5794 5792 5790 5788
5762 5766 5769 5772 5774 5777 5779 5782 5784 5786 5788 5790 5793 5796 5798 5800 5803 5804 5806 5806 5807 5808 5808 5808 5807 5806 5805 5804 5803 5802 5800 5799 5797 5796 5794 5793 5792 5790 5788 5787 5785 5783 5781 5779
5754 5758 5761 5763 5766 5769 5772 5774 5776 5778 5780 5782 5785 5788 5790 5792 5794 5795 5796 5797 5798 5799 5799 5798 5798 5797 5796 5794 5793 5792 5790 5789 5787 5785 5784 5783 5781 5780 5778 5777 5775 5773 5771 5769
5746 5750 5753 5756 5758 5761 5764 5766 5768 5770 5772 5774 5777 5779 5781 5783 5784 5786 5787 5788 5788 5788 5788 5788 5788 5787 5786 5785 5783 5782 5780 5779 5777 5775 5774 5772 5771 5769 5767 5766 5764 5762 5761 5759
5738 5742 5745 5748 5751 5754 5756 5759 5761 5763 5764 5766 5768 5771 5772 5774 5775 5776 5777 5778 5778 5778 5778 5778 5778 5777 5776 5774 5773 5772 5770 5769 5767 5765 5764 5762 5760 5759 5757 5755 5753 5752 5750 5748
5730 5734 5738 5741 5744 5746 5749 5752 5754 5756 5757 5759 5761 5763 5764 5765 5766 5768 5768 5768 5768 5768 5768 5768 5767 5766 5765 5764 5762 5761 5759 5758 5756 5755 5753 5751 5750 5748 5746 5745 5743 5741 5740 5738
5724 5727 5731 5734 5737 5740 5742 5744 5746 5748 5750 5752 5754 5755 5756 5757 5757 5758 5758 5758 5758 5758 5758 5758 5757 5756 5754 5753 5751 5750 5748 5747 5745 5743 5742 5740 5739 5737 5736 5734 5732 5731 5729 5727
5717 5721 5724 5727 5730 5733 5735 5737 5739 5741 5743 5744 5746 5747 5748 5748 5749 5749 5749 5749 5749 5748 5748 5748 5747 5746 5744 5742 5741 5739 5738 5736 5734 5732 5731 5730 5728 5726 5725 5723 5721 5719 5718 5716
5712 5715 5718 5721 5724 5726 5729 5731 5733 5734 5736 5737 5738 5739 5739 5740 5740 5740 5740 5739 5739 5739 5739 5738 5737 5736 5734 5733 5731 5729 5727 5725 5724 5722 5721 5719 5718 5716 5714 5712 5711 5709 5707 5705
5706 5709 5712 5715 5717 5720 5722 5724 5726 5727 5729 5730 5731 5732 5732 5732 5731 5731 5731 5731 5730 5730 5729 5728 5727 5726 5725 5723 5721 5719 5717 5716 5714 5712 5711 5709 5707 5705 5703 5702 5700 5698 5696 5694
5701 5704 5707 5709 5711 5714 5716 5718 5719 5720 5722 5723 5724 5724 5724 5724 5724 5723 5723 5722 5721 5720 5720 5719 5718 5717 5716 5714 5712 5710 5709 5707 5705 5703 5701 5699 5697 5695 5693 5691 5689 5687 5685 5683
5696 5699 5702 5704 5706 5708 5710 5712 5713 5714 5715 5716 5717 5717 5717 5717 5716 5715 5714 5714 5713 5712 5711 5711 5710 5709 5707 5705 5704 5702 5700 5698 5696 5694 5692 5690 5687 5685 5683 5681 5679 5677 5675 5672
5691 5694 5696 5698 5700 5702 5704 5706 5707 5708 5709 5710 5710 5711 5710 5710 5709 5708 5707 5707 5706 5705 5704 5703 5702 5701 5699 5698 5696 5694 5692 5690 5688 5686 5683 5681 5679 5677 5674 5672 5670 5668 5666 5663
5687 5689 5692 5694 5696 5697 5699 5700 5702 5703 5704 5704 5705 5705 5704 5704 5703 5702 5701 5700 5700 5699 5698 5697 5695 5694 5693 5691 5689 5687 5685 5683 5681 5678 5676 5674 5671 5669 5667 5664 5662 5659 5657 5654
5683 5685 5687 5689 5691 5693 5694 5695 5696 5697 5698 5699 5699 5699 5699 5698 5698 5697 5697 5695 5694 5693 5692 5690 5689 5688 5687 5685 5683 5680 5678 5676 5674 5671 5669 5666 5664 5661 5659 5656 5653 5650 5647 5644
5679 5682 5684 5685 5687 5688 5690 5691 5692 5693 5693 5694 5694 5694 5694 5694 5693 5692 5692 5691 5689 5688 5687 5685 5684 5683 5681 5679 5676 5674 5672 5669 5666 5664 5661 5659 5656 5653 5651 5648 5645 5642 5638 5635
5677 5678 5680 5682 5683 5685 5686 5687 5688 5688 5689 5690 5690 5690 5690 5689 5689 5688 5687 5686 5685 5683 5682 5681 5679 5677 5675 5673 5671 5668 5665 5662 5660 5657 5654 5651 5648 5645 5642 5639 5636 5632 5629 5625